This is the latest recevied weather packets stored in our database for station/object YM2KV-13. If no packets are shown the sender has not sent any weather packets the latest 10 day(s).
| Time | Temp. | Humidity | Pressure | Rain* | Wind** | Luminosity | Snow |
|---|---|---|---|---|---|---|---|
| 1777739382 | 10° C | 66% | 1026.8 hPa | - | - | - | - |
| 1777738782 | 10.56° C | 66% | 1026.7 hPa | - | - | - | - |
| 1777738182 | 10.56° C | 67% | 1026.6 hPa | - | - | - | - |
| 1777737582 | 10.56° C | 67% | 1026.7 hPa | - | - | - | - |
| 1777736982 | 10.56° C | 67% | 1026.9 hPa | - | - | - | - |
| 1777736382 | 10.56° C | 67% | 1027 hPa | - | - | - | - |
| 1777735782 | 11.11° C | 66% | 1026.8 hPa | - | - | - | - |
| 1777735182 | 11.11° C | 66% | 1026.9 hPa | - | - | - | - |
| 1777734582 | 11.11° C | 66% | 1027.1 hPa | - | - | - | - |
| 1777733982 | 11.67° C | 66% | 1026.9 hPa | - | - | - | - |
| 1777733382 | 11.67° C | 65% | 1026.7 hPa | - | - | - | - |
| 1777732782 | 11.67° C | 65% | 1026.7 hPa | - | - | - | - |
| 1777732182 | 11.67° C | 65% | 1026.9 hPa | - | - | - | - |
| 1777731582 | 11.67° C | 67% | 1026.9 hPa | - | - | - | - |
| 1777730982 | 11.67° C | 64% | 1027.2 hPa | - | - | - | - |
| 1777730382 | 11.67° C | 65% | 1027.4 hPa | - | - | - | - |
| 1777729782 | 12.22° C | 63% | 1027.3 hPa | - | - | - | - |
| 1777729182 | 12.22° C | 64% | 1027.2 hPa | - | - | - | - |
| 1777728582 | 12.22° C | 65% | 1027.1 hPa | - | - | - | - |
| 1777727982 | 11.67° C | 66% | 1027.3 hPa | - | - | - | - |
| 1777727382 | 11.67° C | 66% | 1027.5 hPa | - | - | - | - |
| 1777726782 | 11.67° C | 66% | 1027.8 hPa | - | - | - | - |
| 1777726182 | 12.22° C | 65% | 1027.9 hPa | - | - | - | - |
| 1777725582 | 12.22° C | 64% | 1027.8 hPa | - | - | - | - |
| 1777724982 | 12.78° C | 63% | 1027.9 hPa | - | - | - | - |
* Rain since midnight (hover to see other rain measurements)
** Current wind speed in m/s (hover to see current wind gust speed)